SKYSAT 1

导读 | 豆包AI

SKYSAT 1是美国发射的高清遥感卫星,于2013年11月21日发射入轨,属于SkySat系列小卫星,由Skybox Imaging公司主导打造。该卫星具备亚米级高分辨率成像能力,可提供高质量对地观测影像,服务于测绘、环境监测、城市规划、灾害评估等多个领域,推动了商业高清遥感卫星应用发展。

Basic Information
目录编号:
39418
目录名称:
SKYSAT 1
国际标识:
2013-066C
轨道中心:
EARTH
卫星名称:
SKYSAT 1
卫星全名:
--
卫星状态:
在轨 (已飞行4541 天)
发射日期:
2013-11-21 UTC
国别 :
美国 (US)
星等 :
--
Orbit Information
数据来源 国际轨道数据 AOE轨道数据
星历时间 2026-04-28T18:50:01+0800
11小时前
查看轨道信息
2026-04-22T20:00:00+0800
6天前
查看轨道信息
半长轴 6906.165km 6906.267km
偏心率 0.002306 0.0022676
轨道倾角 97.386° 97.389°
近地点辐角 124.317° 143.998°
升交点赤经 169.433° 163.669°
平近点角 236.025° 228.139°
近地点 512.102km 512.469km
远地点 543.954km 543.791km
周期 95.195分钟 95.197分钟
每日圈数 15.126812 15.126475
Detailed Information
使用方式:
暂无
2D Orbit Map
3D Orbit Map
Orbit Altitude Analysis Chart
Orbit Inclination Analysis Chart
Orbit Comprehensive Analysis Chart
View Comprehensive Chart